| time (UTC) | temp C | wind direction | speed KPH | gust KPH | rain 1hr cm | rain 24hr cm | rain mn cm | humidity % | barometer mb |
| 20260506114037 | 18 | 222 | 1.6 | 8.0 | 0.00 | 0.00 | 0.00 | 83 | 1017.1 |
| 20260506113537 | 18 | 223 | 3.2 | 11.3 | 0.00 | 0.00 | 0.00 | 84 | 1017.0 |
| 20260506113037 | 18 | 217 | 3.2 | 11.3 | 0.00 | 0.00 | 0.00 | 84 | 1017.0 |
| 20260506112537 | 18 | 228 | 3.2 | 9.7 | 0.00 | 0.00 | 0.00 | 84 | 1016.8 |
| 20260506112037 | 18 | 214 | 3.2 | 9.7 | 0.00 | 0.00 | 0.00 | 84 | 1016.9 |
| 20260506111814 | 18 | 242 | 1.6 | 6.4 | 0.00 | 0.00 | 0.00 | 84 | 1016.7 |
| 20260506111033 | 18 | 219 | 1.6 | 8.0 | 0.00 | 0.00 | 0.00 | 84 | 1016.6 |
| 20260506110817 | 18 | 219 | 1.6 | 8.0 | 0.00 | 0.00 | 0.00 | 84 | 1016.6 |
| 20260506110029 | 18 | 233 | 0.0 | 6.4 | 0.00 | 0.00 | 0.00 | 84 | 1016.6 |
| 20260506105530 | 18 | 208 | 1.6 | 8.0 | 0.00 | 0.00 | 0.00 | 84 | 1016.5 |
| 20260506105030 | 18 | 246 | 1.6 | 8.0 | 0.00 | 0.00 | 0.00 | 84 | 1016.6 |
| 20260506104528 | 18 | 254 | 1.6 | 8.0 | 0.00 | 0.00 | 0.00 | 84 | 1016.6 |
| 20260506104305 | 18 | 219 | 1.6 | 8.0 | 0.00 | 0.00 | 0.00 | 84 | 1016.4 |
| 20260506103527 | 18 | 216 | 0.0 | 6.4 | 0.00 | 0.00 | 0.00 | 84 | 1016.3 |
| 20260506103028 | 18 | 185 | 0.0 | 0.0 | 0.00 | 0.00 | 0.00 | 83 | 1016.4 |
| 20260506102527 | 18 | 219 | 0.0 | 0.0 | 0.00 | 0.00 | 0.00 | 83 | 1016.4 |
| 20260506102026 | 18 | 225 | 0.0 | 0.0 | 0.00 | 0.00 | 0.00 | 83 | 1016.3 |
| 20260506101528 | 18 | 215 | 0.0 | 0.0 | 0.00 | 0.00 | 0.00 | 83 | 1016.0 |
| 20260506101022 | 18 | 227 | 0.0 | 1.6 | 0.00 | 0.00 | 0.00 | 83 | 1016.0 |
| 20260506100521 | 18 | 221 | 0.0 | 1.6 | 0.00 | 0.00 | 0.00 | 83 | 1015.9 |
| 20260506100020 | 18 | 182 | 0.0 | 0.0 | 0.00 | 0.00 | 0.00 | 83 | 1015.9 |
| 20260506095517 | 17 | 219 | 0.0 | 0.0 | 0.00 | 0.00 | 0.00 | 83 | 1015.9 |
| 20260506095018 | 17 | 221 | 0.0 | 0.0 | 0.00 | 0.00 | 0.00 | 83 | 1015.9 |
| 20260506094516 | 17 | 232 | 0.0 | 0.0 | 0.00 | 0.00 | 0.00 | 82 | 1015.7 |
| 20260506094016 | 17 | 223 | 0.0 | 0.0 | 0.00 | 0.00 | 0.00 | 82 | 1015.7 |
| 20260506093516 | 17 | 223 | 0.0 | 0.0 | 0.00 | 0.00 | 0.00 | 82 | 1015.6 |
| 20260506093010 | 17 | 227 | 0.0 | 0.0 | 0.00 | 0.00 | 0.00 | 81 | 1015.5 |
| 20260506092509 | 17 | 218 | 0.0 | 0.0 | 0.00 | 0.00 | 0.00 | 81 | 1015.4 |
| 20260506092010 | 17 | 205 | 0.0 | 0.0 | 0.00 | 0.00 | 0.00 | 81 | 1015.6 |
| 20260506091510 | 17 | 211 | 0.0 | 0.0 | 0.00 | 0.00 | 0.00 | 81 | 1015.7 |
| 20260506091007 | 17 | 204 | 0.0 | 0.0 | 0.00 | 0.00 | 0.00 | 80 | 1015.6 |
| 20260506090508 | 17 | 211 | 0.0 | 0.0 | 0.00 | 0.00 | 0.00 | 80 | 1015.5 |
| 20260506090005 | 17 | 198 | 0.0 | 0.0 | 0.00 | 0.00 | 0.00 | 80 | 1015.5 |
| 20260506085740 | 17 | 195 | 0.0 | 0.0 | 0.00 | 0.00 | 0.00 | 79 | 1015.6 |
| 20260506085003 | 17 | 209 | 0.0 | 0.0 | 0.00 | 0.00 | 0.00 | 79 | 1015.7 |
| 20260506084502 | 17 | 206 | 0.0 | 0.0 | 0.00 | 0.00 | 0.00 | 79 | 1015.6 |
| 20260506084242 | 17 | 214 | 0.0 | 0.0 | 0.00 | 0.00 | 0.00 | 79 | 1015.7 |
| 20260506083502 | 17 | 213 | 0.0 | 0.0 | 0.00 | 0.00 | 0.00 | 78 | 1015.8 |
| 20260506083002 | 17 | 212 | 0.0 | 0.0 | 0.00 | 0.00 | 0.00 | 78 | 1015.7 |
| 20260506082502 | 17 | 198 | 0.0 | 0.0 | 0.00 | 0.00 | 0.00 | 78 | 1015.6 |
| 20260506082003 | 17 | 211 | 0.0 | 1.6 | 0.00 | 0.00 | 0.00 | 78 | 1015.4 |
| 20260506081504 | 17 | 196 | 0.0 | 1.6 | 0.00 | 0.00 | 0.00 | 78 | 1015.5 |
| 20260506081239 | 17 | 213 | 0.0 | 0.0 | 0.00 | 0.00 | 0.00 | 78 | 1015.7 |
| 20260506080503 | 17 | 217 | 0.0 | 0.0 | 0.00 | 0.00 | 0.00 | 78 | 1015.7 |
| 20260506080240 | 17 | 194 | 0.0 | 0.0 | 0.00 | 0.00 | 0.00 | 78 | 1015.6 |
| 20260506073501 | 17 | 208 | 0.0 | 0.0 | 0.00 | 0.00 | 0.00 | 75 | 1015.7 |
| 20260506073003 | 17 | 186 | 0.0 | 0.0 | 0.00 | 0.00 | 0.00 | 75 | 1015.6 |
| 20260506072500 | 17 | 202 | 0.0 | 0.0 | 0.00 | 0.00 | 0.00 | 74 | 1015.7 |
| 20260506072001 | 17 | 202 | 0.0 | 0.0 | 0.00 | 0.00 | 0.00 | 74 | 1015.7 |
| 20260506071502 | 17 | 201 | 0.0 | 0.0 | 0.00 | 0.00 | 0.00 | 74 | 1015.6 |
| 20260506071006 | 17 | 185 | 0.0 | 0.0 | 0.00 | 0.00 | 0.00 | 73 | 1015.6 |
| 20260506070500 | 17 | 184 | 0.0 | 0.0 | 0.00 | 0.00 | 0.00 | 73 | 1015.7 |
| 20260506070247 | 17 | 176 | 0.0 | 0.0 | 0.00 | 0.00 | 0.00 | 73 | 1015.9 |
| 20260506062454 | 17 | 188 | 0.0 | 0.0 | 0.00 | 0.00 | 0.00 | 69 | 1016.5 |
| 20260506061957 | 18 | 188 | 0.0 | 0.0 | 0.00 | 0.00 | 0.00 | 68 | 1016.6 |
| 20260506061447 | 18 | 188 | 0.0 | 0.0 | 0.00 | 0.00 | 0.00 | 68 | 1016.6 |
| 20260506060943 | 18 | 188 | 0.0 | 0.0 | 0.00 | 0.00 | 0.00 | 67 | 1016.6 |
| 20260506060439 | 18 | 187 | 0.0 | 0.0 | 0.00 | 0.00 | 0.00 | 67 | 1016.7 |
| 20260506050905 | 18 | 207 | 0.0 | 0.0 | 0.00 | 0.00 | 0.00 | 60 | 1016.7 |
| 20260506050402 | 18 | 204 | 0.0 | 0.0 | 0.00 | 0.00 | 0.00 | 60 | 1016.7 |
| 20260506044904 | 19 | 221 | 0.0 | 0.0 | 0.00 | 0.00 | 0.00 | 59 | 1016.3 |
| 20260506044404 | 19 | 199 | 0.0 | 0.0 | 0.00 | 0.00 | 0.00 | 58 | 1016.2 |
| 20260506043902 | 19 | 203 | 0.0 | 0.0 | 0.00 | 0.00 | 0.00 | 58 | 1016.0 |
| 20260506043401 | 19 | 201 | 0.0 | 0.0 | 0.00 | 0.00 | 0.00 | 58 | 1016.3 |
| 20260506043143 | 19 | 190 | 0.0 | 0.0 | 0.00 | 0.00 | 0.00 | 58 | 1016.6 |
| 20260506042401 | 19 | 206 | 0.0 | 0.0 | 0.00 | 0.00 | 0.00 | 57 | 1016.9 |
| 20260506041902 | 19 | 196 | 0.0 | 0.0 | 0.00 | 0.00 | 0.00 | 57 | 1016.5 |
| 20260506041404 | 20 | 196 | 0.0 | 0.0 | 0.00 | 0.00 | 0.00 | 56 | 1016.6 |
| 20260506040902 | 20 | 207 | 0.0 | 0.0 | 0.00 | 0.00 | 0.00 | 56 | 1016.8 |
| 20260506040356 | 20 | 192 | 0.0 | 0.0 | 0.00 | 0.00 | 0.00 | 55 | 1016.5 |
| 20260506035852 | 20 | 198 | 0.0 | 0.0 | 0.00 | 0.00 | 0.00 | 55 | 1016.4 |
| 20260506035351 | 20 | 183 | 0.0 | 0.0 | 0.00 | 0.00 | 0.00 | 55 | 1016.5 |
| 20260506035136 | 20 | 213 | 0.0 | 0.0 | 0.00 | 0.00 | 0.00 | 54 | 1016.5 |
| 20260506034349 | 20 | 213 | 0.0 | 0.0 | 0.00 | 0.00 | 0.00 | 54 | 1016.5 |
| 20260506033848 | 20 | 206 | 0.0 | 0.0 | 0.00 | 0.00 | 0.00 | 54 | 1016.4 |
| 20260506033348 | 20 | 199 | 0.0 | 0.0 | 0.00 | 0.00 | 0.00 | 54 | 1016.3 |
| 20260506032846 | 20 | 185 | 0.0 | 0.0 | 0.00 | 0.00 | 0.00 | 53 | 1016.5 |
| 20260506032346 | 20 | 205 | 0.0 | 0.0 | 0.00 | 0.00 | 0.00 | 52 | 1016.6 |
| 20260506031844 | 20 | 191 | 0.0 | 0.0 | 0.00 | 0.00 | 0.00 | 51 | 1016.7 |
| 20260506031343 | 20 | 221 | 0.0 | 0.0 | 0.00 | 0.00 | 0.00 | 51 | 1016.5 |
| 20260506030842 | 20 | 190 | 0.0 | 0.0 | 0.00 | 0.00 | 0.00 | 51 | 1016.2 |
| 20260506030342 | 20 | 203 | 0.0 | 0.0 | 0.00 | 0.00 | 0.00 | 50 | 1016.3 |
| 20260506030129 | 20 | 180 | 0.0 | 0.0 | 0.00 | 0.00 | 0.00 | 50 | 1016.3 |
| 20260506025342 | 20 | 210 | 0.0 | 0.0 | 0.00 | 0.00 | 0.00 | 50 | 1016.5 |
| 20260506024845 | 20 | 192 | 0.0 | 0.0 | 0.00 | 0.00 | 0.00 | 50 | 1016.5 |
| 20260506024343 | 20 | 216 | 0.0 | 0.0 | 0.00 | 0.00 | 0.00 | 51 | 1016.7 |
| 20260506024131 | 20 | 206 | 0.0 | 0.0 | 0.00 | 0.00 | 0.00 | 51 | 1016.7 |
| 20260506023337 | 20 | 198 | 0.0 | 0.0 | 0.00 | 0.00 | 0.00 | 50 | 1016.8 |
| 20260506022837 | 20 | 205 | 0.0 | 0.0 | 0.00 | 0.00 | 0.00 | 51 | 1016.9 |
| 20260506022336 | 20 | 202 | 0.0 | 0.0 | 0.00 | 0.00 | 0.00 | 51 | 1016.8 |
| 20260506021836 | 20 | 202 | 0.0 | 0.0 | 0.00 | 0.00 | 0.00 | 51 | 1016.7 |
| 20260506021337 | 20 | 172 | 0.0 | 0.0 | 0.00 | 0.00 | 0.00 | 51 | 1016.7 |
| 20260506020834 | 20 | 205 | 0.0 | 0.0 | 0.00 | 0.00 | 0.00 | 51 | 1016.7 |
| 20260506020333 | 21 | 200 | 0.0 | 0.0 | 0.00 | 0.00 | 0.00 | 50 | 1016.4 |
| 20260506015834 | 21 | 226 | 0.0 | 0.0 | 0.00 | 0.00 | 0.00 | 50 | 1016.5 |
| 20260506015333 | 21 | 227 | 0.0 | 0.0 | 0.00 | 0.00 | 0.00 | 49 | 1016.3 |
| 20260506014832 | 21 | 200 | 0.0 | 0.0 | 0.00 | 0.00 | 0.00 | 50 | 1016.2 |
| 20260506014615 | 21 | 205 | 0.0 | 0.0 | 0.00 | 0.00 | 0.00 | 50 | 1016.4 |
| 20260506013830 | 21 | 204 | 0.0 | 0.0 | 0.00 | 0.00 | 0.00 | 50 | 1016.7 |
| 20260506013331 | 21 | 207 | 0.0 | 0.0 | 0.00 | 0.00 | 0.00 | 49 | 1016.6 |
| 20260506012835 | 21 | 200 | 0.0 | 0.0 | 0.00 | 0.00 | 0.00 | 49 | 1016.4 |
| 20260506012332 | 21 | 180 | 0.0 | 0.0 | 0.00 | 0.00 | 0.00 | 50 | 1016.5 |
| 20260506011831 | 21 | 199 | 0.0 | 0.0 | 0.00 | 0.00 | 0.00 | 49 | 1016.3 |
| 20260506011332 | 21 | 194 | 0.0 | 0.0 | 0.00 | 0.00 | 0.00 | 50 | 1016.3 |
| 20260506010832 | 21 | 194 | 0.0 | 0.0 | 0.00 | 0.00 | 0.00 | 50 | 1016.3 |
| 20260506010329 | 21 | 197 | 0.0 | 0.0 | 0.00 | 0.00 | 0.00 | 49 | 1016.3 |
| 20260506010112 | 21 | 196 | 0.0 | 0.0 | 0.00 | 0.00 | 0.00 | 49 | 1016.2 |
| 20260506005329 | 21 | 177 | 0.0 | 0.0 | 0.00 | 0.00 | 0.00 | 49 | 1016.2 |
| 20260506004830 | 21 | 201 | 0.0 | 0.0 | 0.00 | 0.00 | 0.00 | 48 | 1016.2 |
| 20260506004329 | 21 | 161 | 0.0 | 0.0 | 0.00 | 0.00 | 0.00 | 48 | 1016.4 |
| 20260506003829 | 21 | 183 | 0.0 | 0.0 | 0.00 | 0.00 | 0.00 | 50 | 1016.4 |
| 20260506003329 | 21 | 175 | 0.0 | 0.0 | 0.00 | 0.00 | 0.00 | 49 | 1016.4 |
| 20260506002832 | 21 | 224 | 0.0 | 0.0 | 0.00 | 0.00 | 0.00 | 48 | 1016.6 |
| 20260506002610 | 21 | 224 | 0.0 | 0.0 | 0.00 | 0.00 | 0.00 | 47 | 1016.6 |
| 20260506002108 | 22 | 224 | 0.0 | 0.0 | 0.00 | 0.00 | 0.00 | 47 | 1016.6 |
| 20260506001328 | 22 | 224 | 0.0 | 0.0 | 0.00 | 0.00 | 0.00 | 44 | 1016.7 |
| 20260506000822 | 22 | 223 | 0.0 | 0.0 | 0.00 | 0.00 | 0.00 | 44 | 1016.7 |
| 20260506000315 | 22 | 223 | 0.0 | 1.6 | 0.00 | 0.00 | 0.00 | 44 | 1016.8 |
| 20260505235814 | 22 | 224 | 0.0 | 1.6 | 0.00 | 0.00 | 0.00 | 42 | 1016.7 |
| 20260505235315 | 23 | 228 | 0.0 | 0.0 | 0.00 | 0.00 | 0.00 | 42 | 1016.5 |
| 20260505234813 | 23 | 223 | 0.0 | 0.0 | 0.00 | 0.00 | 0.00 | 42 | 1016.6 |
| 20260505234313 | 23 | 221 | 0.0 | 0.0 | 0.00 | 0.00 | 0.00 | 41 | 1016.5 |
| 20260505233812 | 23 | 234 | 0.0 | 0.0 | 0.00 | 0.00 | 0.00 | 41 | 1016.6 |
| 20260505233310 | 23 | 248 | 0.0 | 0.0 | 0.00 | 0.00 | 0.00 | 41 | 1016.7 |
| 20260505232810 | 23 | 223 | 0.0 | 0.0 | 0.00 | 0.00 | 0.00 | 41 | 1016.7 |
| 20260505232307 | 23 | 203 | 3.2 | 17.7 | 0.00 | 0.00 | 0.00 | 41 | 1016.7 |
| 20260505231804 | 23 | 216 | 3.2 | 17.7 | 0.00 | 0.00 | 0.00 | 42 | 1016.7 |
| 20260505231304 | 23 | 193 | 0.0 | 1.6 | 0.00 | 0.00 | 0.00 | 41 | 1016.7 |
| 20260505230804 | 23 | 252 | 0.0 | 6.4 | 0.00 | 0.00 | 0.00 | 41 | 1016.7 |
| 20260505230304 | 24 | 234 | 4.8 | 12.9 | 0.00 | 0.00 | 0.00 | 42 | 1016.6 |
| 20260505225804 | 24 | 221 | 8.0 | 12.9 | 0.00 | 0.00 | 0.00 | 40 | 1016.6 |
| 20260505225305 | 24 | 245 | 6.4 | 12.9 | 0.00 | 0.00 | 0.00 | 40 | 1016.4 |
| 20260505224803 | 24 | 225 | 6.4 | 19.3 | 0.00 | 0.00 | 0.00 | 41 | 1016.4 |
| 20260505224304 | 24 | 171 | 8.0 | 19.3 | 0.00 | 0.00 | 0.00 | 40 | 1016.3 |
| 20260505223804 | 25 | 167 | 6.4 | 16.1 | 0.00 | 0.00 | 0.00 | 40 | 1016.2 |
| 20260505223302 | 25 | 188 | 8.0 | 17.7 | 0.00 | 0.00 | 0.00 | 40 | 1016.2 |
| 20260505222752 | 25 | 219 | 6.4 | 17.7 | 0.00 | 0.00 | 0.00 | 38 | 1016.3 |
| 20260505222246 | 25 | 248 | 8.0 | 14.5 | 0.00 | 0.00 | 0.00 | 39 | 1016.3 |
| 20260505221741 | 24 | 209 | 8.0 | 14.5 | 0.00 | 0.00 | 0.00 | 37 | 1016.3 |
| 20260505221234 | 25 | 171 | 6.4 | 14.5 | 0.00 | 0.00 | 0.00 | 39 | 1016.4 |
| 20260505220735 | 25 | 205 | 6.4 | 12.9 | 0.00 | 0.00 | 0.00 | 37 | 1016.3 |
| 20260505220409 | 25 | 191 | 9.7 | 24.1 | 0.00 | 0.00 | 0.00 | 36 | 1016.3 |
| 20260505220304 | 25 | 196 | 6.4 | 24.1 | 0.00 | 0.00 | 0.00 | 38 | 1016.3 |
| 20260505215358 | 25 | 205 | 9.7 | 27.4 | 0.00 | 0.00 | 0.00 | 36 | 1016.2 |
| 20260505215251 | 25 | 165 | 11.3 | 27.4 | 0.00 | 0.00 | 0.00 | 36 | 1016.2 |
| 20260505214233 | 25 | 190 | 8.0 | 20.9 | 0.00 | 0.00 | 0.00 | 37 | 1015.9 |
| 20260505213730 | 25 | 180 | 8.0 | 20.9 | 0.00 | 0.00 | 0.00 | 35 | 1016.0 |
| 20260505213518 | 25 | 211 | 9.7 | 20.9 | 0.00 | 0.00 | 0.00 | 35 | 1016.2 |
| 20260505212730 | 26 | 164 | 11.3 | 20.9 | 0.00 | 0.00 | 0.00 | 36 | 1016.3 |
| 20260505212230 | 26 | 252 | 11.3 | 19.3 | 0.00 | 0.00 | 0.00 | 37 | 1016.3 |
| 20260505211730 | 26 | 201 | 11.3 | 32.2 | 0.00 | 0.00 | 0.00 | 35 | 1016.2 |
| 20260505211229 | 26 | 200 | 8.0 | 32.2 | 0.00 | 0.00 | 0.00 | 36 | 1016.6 |
| 20260505210731 | 26 | 199 | 6.4 | 17.7 | 0.00 | 0.00 | 0.00 | 36 | 1016.6 |
| 20260505210230 | 26 | 215 | 8.0 | 17.7 | 0.00 | 0.00 | 0.00 | 35 | 1016.6 |
| 20260505205729 | 26 | 276 | 11.3 | 20.9 | 0.00 | 0.00 | 0.00 | 37 | 1016.5 |
| 20260505205229 | 25 | 184 | 11.3 | 25.7 | 0.00 | 0.00 | 0.00 | 37 | 1016.6 |
| 20260505204734 | 25 | 169 | 11.3 | 25.7 | 0.00 | 0.00 | 0.00 | 36 | 1016.3 |
| 20260505204236 | 25 | 171 | 8.0 | 20.9 | 0.00 | 0.00 | 0.00 | 37 | 1016.6 |
| 20260505203736 | 26 | 231 | 8.0 | 20.9 | 0.00 | 0.00 | 0.00 | 37 | 1016.7 |
| 20260505203233 | 26 | 209 | 9.7 | 22.5 | 0.00 | 0.00 | 0.00 | 36 | 1016.9 |
| 20260505203011 | 25 | 205 | 9.7 | 22.5 | 0.00 | 0.00 | 0.00 | 35 | 1016.8 |
| 20260505202230 | 26 | 157 | 9.7 | 17.7 | 0.00 | 0.00 | 0.00 | 39 | 1016.8 |
| 20260505201729 | 25 | 200 | 9.7 | 16.1 | 0.00 | 0.00 | 0.00 | 37 | 1017.0 |
| 20260505201229 | 26 | 186 | 8.0 | 16.1 | 0.00 | 0.00 | 0.00 | 37 | 1017.1 |
| 20260505201016 | 25 | 263 | 6.4 | 16.1 | 0.00 | 0.00 | 0.00 | 37 | 1017.1 |
| 20260505200229 | 26 | 148 | 6.4 | 20.9 | 0.00 | 0.00 | 0.00 | 39 | 1017.2 |
| 20260505195730 | 26 | 164 | 8.0 | 20.9 | 0.00 | 0.00 | 0.00 | 39 | 1017.3 |
| 20260505195656 | 26 | 204 | 8.0 | 22.5 | 0.00 | 0.00 | 0.00 | 38 | 1017.3 |
| 20260505195617 | 25 | 174 | 8.0 | 17.7 | 0.00 | 0.00 | 0.00 | 38 | 1017.3 |
| 20260505194232 | 26 | 211 | 9.7 | 22.5 | 0.00 | 0.00 | 0.00 | 40 | 1017.5 |
| 20260505193730 | 25 | 215 | 9.7 | 17.7 | 0.00 | 0.00 | 0.00 | 40 | 1017.5 |
| 20260505193230 | 25 | 190 | 9.7 | 19.3 | 0.00 | 0.00 | 0.00 | 38 | 1017.5 |
| 20260505192730 | 25 | 178 | 9.7 | 22.5 | 0.00 | 0.00 | 0.00 | 37 | 1017.6 |
| 20260505192230 | 25 | 188 | 8.0 | 25.7 | 0.00 | 0.00 | 0.00 | 41 | 1017.6 |
| 20260505191729 | 25 | 235 | 9.7 | 25.7 | 0.00 | 0.00 | 0.00 | 39 | 1017.5 |
| 20260505191224 | 25 | 198 | 11.3 | 24.1 | 0.00 | 0.00 | 0.00 | 41 | 1017.5 |
| 20260505190721 | 25 | 164 | 11.3 | 24.1 | 0.00 | 0.00 | 0.00 | 43 | 1017.6 |
| 20260505190212 | 25 | 217 | 9.7 | 20.9 | 0.00 | 0.00 | 0.00 | 39 | 1017.6 |
| 20260505185710 | 25 | 228 | 9.7 | 19.3 | 0.00 | 0.00 | 0.00 | 40 | 1017.6 |
| 20260505185210 | 25 | 200 | 11.3 | 27.4 | 0.00 | 0.00 | 0.00 | 40 | 1017.6 |
| 20260505184705 | 25 | 274 | 12.9 | 27.4 | 0.00 | 0.00 | 0.00 | 38 | 1017.6 |
| 20260505184206 | 25 | 208 | 11.3 | 24.1 | 0.00 | 0.00 | 0.00 | 40 | 1017.7 |
| 20260505183705 | 25 | 229 | 12.9 | 27.4 | 0.00 | 0.00 | 0.00 | 41 | 1017.6 |
| 20260505183206 | 25 | 198 | 12.9 | 27.4 | 0.00 | 0.00 | 0.00 | 37 | 1017.9 |
| 20260505182706 | 25 | 257 | 9.7 | 24.1 | 0.00 | 0.00 | 0.00 | 41 | 1017.8 |
| 20260505182206 | 25 | 250 | 11.3 | 24.1 | 0.00 | 0.00 | 0.00 | 44 | 1018.0 |
| 20260505181703 | 24 | 238 | 12.9 | 24.1 | 0.00 | 0.00 | 0.00 | 42 | 1017.9 |
| 20260505181203 | 24 | 251 | 9.7 | 24.1 | 0.00 | 0.00 | 0.00 | 39 | 1018.1 |
| 20260505180936 | 24 | 186 | 9.7 | 22.5 | 0.00 | 0.00 | 0.00 | 42 | 1018.1 |
| 20260505180201 | 24 | 185 | 9.7 | 20.9 | 0.00 | 0.00 | 0.00 | 41 | 1018.3 |
| 20260505175701 | 24 | 218 | 9.7 | 24.1 | 0.00 | 0.00 | 0.00 | 41 | 1018.4 |
| 20260505175202 | 24 | 211 | 11.3 | 24.1 | 0.00 | 0.00 | 0.00 | 43 | 1018.6 |
| 20260505174700 | 24 | 211 | 9.7 | 19.3 | 0.00 | 0.00 | 0.00 | 43 | 1018.7 |
| 20260505174202 | 24 | 200 | 9.7 | 19.3 | 0.00 | 0.00 | 0.00 | 41 | 1018.7 |
| 20260505173702 | 23 | 234 | 4.8 | 22.5 | 0.00 | 0.00 | 0.00 | 41 | 1018.6 |
| 20260505173157 | 24 | 211 | 1.6 | 22.5 | 0.00 | 0.00 | 0.00 | 41 | 1018.9 |
| 20260505172656 | 24 | 148 | 0.0 | 17.7 | 0.00 | 0.00 | 0.00 | 44 | 1019.1 |
| 20260505172154 | 23 | 197 | 1.6 | 17.7 | 0.00 | 0.00 | 0.00 | 42 | 1018.8 |
| 20260505171654 | 24 | 148 | 0.0 | 17.7 | 0.00 | 0.00 | 0.00 | 42 | 1018.9 |
| 20260505171154 | 24 | 159 | 1.6 | 19.3 | 0.00 | 0.00 | 0.00 | 47 | 1019.0 |
| 20260505170941 | 24 | 175 | 4.8 | 20.9 | 0.00 | 0.00 | 0.00 | 43 | 1018.9 |
| 20260505170153 | 23 | 229 | 4.8 | 20.9 | 0.00 | 0.00 | 0.00 | 44 | 1019.0 |
| 20260505165654 | 24 | 229 | 3.2 | 17.7 | 0.00 | 0.00 | 0.00 | 47 | 1019.1 |
| 20260505165157 | 24 | 258 | 0.0 | 17.7 | 0.00 | 0.00 | 0.00 | 42 | 1019.1 |
| 20260505164656 | 24 | 193 | 0.0 | 1.6 | 0.00 | 0.00 | 0.00 | 46 | 1019.1 |
| 20260505164154 | 23 | 199 | 1.6 | 24.1 | 0.00 | 0.00 | 0.00 | 45 | 1019.2 |
| 20260505163651 | 23 | 183 | 3.2 | 24.1 | 0.00 | 0.00 | 0.00 | 43 | 1019.1 |
| 20260505163152 | 23 | 225 | 1.6 | 16.1 | 0.00 | 0.00 | 0.00 | 43 | 1019.0 |
| 20260505162652 | 23 | 223 | 1.6 | 12.9 | 0.00 | 0.00 | 0.00 | 44 | 1018.7 |
| 20260505162151 | 23 | 205 | 1.6 | 14.5 | 0.00 | 0.00 | 0.00 | 44 | 1018.9 |
| 20260505161652 | 23 | 170 | 3.2 | 14.5 | 0.00 | 0.00 | 0.00 | 41 | 1018.9 |
| 20260505161151 | 23 | 191 | 3.2 | 16.1 | 0.00 | 0.00 | 0.00 | 42 | 1018.9 |
| 20260505160651 | 23 | 228 | 3.2 | 16.1 | 0.00 | 0.00 | 0.00 | 43 | 1018.9 |
| 20260505160154 | 23 | 246 | 4.8 | 22.5 | 0.00 | 0.00 | 0.00 | 42 | 1018.8 |
| 20260505153150 | 23 | 243 | 11.3 | 29.0 | 0.00 | 0.00 | 0.00 | 46 | 1019.3 |
| 20260505152652 | 23 | 252 | 6.4 | 20.9 | 0.00 | 0.00 | 0.00 | 49 | 1019.3 |
| 20260505152153 | 23 | 229 | 4.8 | 22.5 | 0.00 | 0.00 | 0.00 | 49 | 1019.3 |
| 20260505151929 | 22 | 192 | 3.2 | 22.5 | 0.00 | 0.00 | 0.00 | 49 | 1019.3 |
| 20260505151424 | 23 | 220 | 1.6 | 12.9 | 0.00 | 0.00 | 0.00 | 52 | 1019.5 |
| 20260505150645 | 22 | 206 | 0.0 | 11.3 | 0.00 | 0.00 | 0.00 | 52 | 1019.1 |
| 20260505150146 | 22 | 167 | 0.0 | 8.0 | 0.00 | 0.00 | 0.00 | 57 | 1019.1 |
| 20260505140637 | 20 | 344 | 0.0 | 0.0 | 0.00 | 0.00 | 0.00 | 64 | 1019.1 |
| 20260505140131 | 20 | 335 | 0.0 | 0.0 | 0.00 | 0.00 | 0.00 | 64 | 1018.9 |
| 20260505124539 | 13 | 75 | 0.0 | 0.0 | 0.00 | 0.00 | 0.00 | 85 | 1018.6 |
| 20260505124037 | 13 | 75 | 0.0 | 0.0 | 0.00 | 0.00 | 0.00 | 86 | 1018.6 |
| 20260505123536 | 12 | 75 | 0.0 | 0.0 | 0.00 | 0.00 | 0.00 | 88 | 1018.5 |
| 20260505123035 | 12 | 76 | 0.0 | 0.0 | 0.00 | 0.00 | 0.00 | 88 | 1018.4 |
| 20260505122531 | 11 | 76 | 0.0 | 0.0 | 0.00 | 0.00 | 0.00 | 89 | 1018.5 |
| 20260505122323 | 11 | 205 | 0.0 | 0.0 | 0.00 | 0.00 | 0.00 | 88 | 1018.3 |
| 20260505121530 | 11 | 206 | 0.0 | 0.0 | 0.00 | 0.00 | 0.00 | 88 | 1018.2 |
| 20260505121032 | 10 | 205 | 0.0 | 0.0 | 0.00 | 0.00 | 0.00 | 89 | 1018.3 |
| 20260505120529 | 10 | 205 | 0.0 | 0.0 | 0.00 | 0.00 | 0.00 | 89 | 1018.2 |
| 20260505120031 | 10 | 205 | 0.0 | 0.0 | 0.00 | 0.00 | 0.00 | 89 | 1018.3 |
| 20260505115529 | 10 | 205 | 0.0 | 0.0 | 0.00 | 0.00 | 0.00 | 89 | 1018.3 |
| 20260505115030 | 10 | 205 | 0.0 | 0.0 | 0.00 | 0.00 | 0.00 | 89 | 1018.3 |
| 20260505114529 | 10 | 206 | 0.0 | 0.0 | 0.00 | 0.00 | 0.00 | 89 | 1018.2 |